Weather History for College Station, TX

Change the Weather History Date:

Friday, September 14, 2012

  Actual Average Record
Temperature  
Mean Temperature 77 °F 80 °F  
Max Temperature 83 °F 91 °F 101 °F (1912)
Min Temperature 70 °F 70 °F 56 °F (1940)
Degree Days  
Heating Degree Days 0 0  
Month to date heating degree days 0 0  
Since 1 July heating degree days 0 0  
Cooling Degree Days 12 16  
Month to date cooling degree days 271 242  
Year to date cooling degree days 3043 2588  
Growing Degree Days 26 (Base 50)    
Moisture  
Dew Point 69 °F    
Average Humidity 85    
Maximum Humidity 100    
Minimum Humidity 66    
Precipitation  
Precipitation 0.00 in 0.10 in 3.05 in (1981)
Month to date precipitation 0.16 1.55  
Year to date precipitation 31.69 27.07  
Sea Level Pressure  
Sea Level Pressure 30.14 in    
Wind  
Wind Speed 8 mph (NNW)    
Max Wind Speed 15 mph    
Max Gust Speed 22 mph    
Visibility 9 miles    
Events      
T = Trace of Precipitation, MM = Missing Value Source: NWS Daily Summary

Daily Weather History Graph

Daily Weather History Graph

Search for Another Location

Airport:

Trip Planner

Search our weather history database for the weather conditions in past years. The results will help you decide how hot, cold, wet, or windy it might be!

Date:

Astronomy

Sep. 14, 2012 Rise Set
Actual Time 7:09 AM CDT 7:31 PM CDT
Civil Twilight 6:45 AM CDT 7:55 PM CDT
Nautical Twilight 6:17 AM CDT 8:23 PM CDT
Astronomical Twilight 5:48 AM CDT 8:52 PM CDT
Moon 5:38 AM CDT (9/14) 6:28 PM CDT (9/14)
Length of Visible Light 13h 10m
Length of Day
12h 21m
Waning Crescent, 2% of the Moon is Illuminated
Sep 14
Waning Crescent
Sep 15
New
Sep 22
First Quarter
Sep 29
Full
Oct 8
Last Quarter

Hourly Weather History & Observations

Time (CDT) Temp. Heat Index Dew Point Humidity Pressure Visibility Wind Dir Wind Speed Gust Speed Precip Events Conditions
12:51 AM 73.4 °F - 71.6 °F 94% 30.14 in 10.0 mi Calm Calm - N/A   Partly Cloudy
12:53 AM 73.0 °F - 71.1 °F 93% 30.13 in 10.0 mi Calm Calm - N/A   Scattered Clouds
12:59 AM 73.4 °F - 71.6 °F 94% 30.14 in 10.0 mi Calm Calm - N/A   Mostly Cloudy
1:49 AM 71.6 °F - 71.6 °F 100% 30.14 in 10.0 mi Calm Calm - N/A   Mostly Cloudy
1:53 AM 72.0 °F - 71.1 °F 97% 30.13 in 10.0 mi Calm Calm - N/A   Mostly Cloudy
2:53 AM 72.0 °F - 71.1 °F 97% 30.12 in 9.0 mi NW 4.6 mph - N/A   Mostly Cloudy
3:13 AM 71.6 °F - 71.6 °F 100% 30.12 in 10.0 mi NNW 4.6 mph - N/A   Mostly Cloudy
3:46 AM 71.6 °F - 71.6 °F 100% 30.12 in 9.0 mi NW 4.6 mph - N/A   Overcast
3:53 AM 72.0 °F - 71.1 °F 97% 30.11 in 8.0 mi NNW 4.6 mph - N/A   Overcast
4:40 AM 73.4 °F - 71.6 °F 94% 30.12 in 9.0 mi Calm Calm - N/A   Mostly Cloudy
4:53 AM 73.0 °F - 71.1 °F 93% 30.11 in 10.0 mi North 3.5 mph - N/A   Mostly Cloudy
5:53 AM 72.0 °F - 71.1 °F 97% 30.12 in 9.0 mi NNW 3.5 mph - N/A   Mostly Cloudy
6:53 AM 72.0 °F - 70.0 °F 93% 30.12 in 10.0 mi North 4.6 mph - 0.01 in   Clear
7:36 AM 73.4 °F - 69.8 °F 88% 30.14 in 7.0 mi North 6.9 mph - N/A   Mostly Cloudy
7:49 AM 73.4 °F - 71.6 °F 94% 30.15 in 7.0 mi North 5.8 mph - N/A   Overcast
7:53 AM 73.0 °F - 71.1 °F 93% 30.14 in 7.0 mi North 6.9 mph - N/A   Overcast
8:53 AM 73.0 °F - 70.0 °F 90% 30.16 in 6.0 mi North 4.6 mph - N/A   Overcast
9:53 AM 73.0 °F - 70.0 °F 90% 30.16 in 7.0 mi North 8.1 mph - N/A   Overcast
10:10 AM 73.4 °F - 69.8 °F 88% 30.17 in 7.0 mi North 8.1 mph - N/A   Overcast
10:23 AM 75.2 °F - 69.8 °F 83% 30.17 in 7.0 mi North 5.8 mph - N/A   Overcast
10:53 AM 75.9 °F - 70.0 °F 82% 30.17 in 10.0 mi NNE 6.9 mph - N/A   Mostly Cloudy
11:00 AM 75.2 °F - 69.8 °F 83% 30.18 in 10.0 mi NNE 6.9 mph - N/A   Overcast
11:53 AM 77.0 °F - 70.0 °F 79% 30.17 in 10.0 mi NW 10.4 mph - N/A   Overcast
12:53 PM 75.9 °F - 69.1 °F 79% 30.16 in 9.0 mi NNW 9.2 mph - N/A   Overcast
1:41 PM 78.8 °F - 69.8 °F 74% 30.16 in 9.0 mi NNW 9.2 mph - N/A   Overcast
1:53 PM 80.1 °F 83.2 °F 70.0 °F 71% 30.15 in 10.0 mi North 8.1 mph - N/A   Mostly Cloudy
2:53 PM 81.0 °F 84.1 °F 69.1 °F 67% 30.12 in 10.0 mi NNW 12.7 mph - N/A   Mostly Cloudy
3:07 PM 82.4 °F 86.3 °F 69.8 °F 66% 30.12 in 10.0 mi NNW 11.5 mph - N/A   Scattered Clouds
3:42 PM 80.6 °F 83.9 °F 69.8 °F 70% 30.12 in 10.0 mi NW 11.5 mph - N/A   Mostly Cloudy
3:53 PM 80.1 °F 82.9 °F 69.1 °F 69% 30.11 in 10.0 mi NW 12.7 mph - N/A   Scattered Clouds
4:53 PM 80.1 °F 82.9 °F 69.1 °F 69% 30.10 in 10.0 mi NW 9.2 mph - N/A   Clear
5:53 PM 77.0 °F - 69.1 °F 76% 30.11 in 10.0 mi WNW 10.4 mph - N/A   Clear
6:23 PM 75.2 °F - 68.0 °F 78% 30.13 in 10.0 mi WNW 9.2 mph 21.9 mph N/A   Mostly Cloudy
6:38 PM 75.2 °F - 68.0 °F 78% 30.13 in 10.0 mi WNW 8.1 mph - N/A   Scattered Clouds
6:53 PM 75.9 °F - 68.0 °F 76% 30.13 in 10.0 mi NW 10.4 mph - N/A   Scattered Clouds
7:18 PM 75.2 °F - 68.0 °F 78% 30.15 in 10.0 mi NW 9.2 mph - N/A   Overcast
7:53 PM 73.0 °F - 66.9 °F 81% 30.13 in 10.0 mi NW 8.1 mph - N/A   Overcast
8:38 PM 73.4 °F - 66.2 °F 78% 30.16 in 10.0 mi NW 6.9 mph - N/A   Overcast
8:53 PM 73.0 °F - 66.9 °F 81% 30.15 in 10.0 mi NNW 6.9 mph - N/A   Overcast
9:33 PM 71.6 °F - 66.2 °F 83% 30.16 in 10.0 mi NW 8.1 mph - N/A   Scattered Clouds
9:53 PM 72.0 °F - 66.0 °F 81% 30.15 in 10.0 mi NNW 10.4 mph - N/A   Clear
10:32 PM 71.6 °F - 66.2 °F 83% 30.17 in 10.0 mi NNW 9.2 mph - N/A   Mostly Cloudy
10:41 PM 71.6 °F - 66.2 °F 83% 30.16 in 10.0 mi NNW 10.4 mph 21.9 mph N/A   Scattered Clouds
10:53 PM 71.1 °F - 66.0 °F 84% 30.15 in 10.0 mi NNW 9.2 mph - N/A   Partly Cloudy
11:41 PM 71.6 °F - 66.2 °F 83% 30.17 in 10.0 mi NNW 8.1 mph - N/A   Mostly Cloudy
11:53 PM 70.0 °F - 64.9 °F 84% 30.17 in 10.0 mi NNW 8.1 mph - N/A   Mostly Cloudy